Morgantown, WV

8:15 PM EST on November 20, 2017 (GMT -0500)
Morgantown Municipal-Hart

Weather History for KMGW - April, 2013

Change the Weather History Date:

Monday, April 1, 2013

  Actual Average Record
Temperature  
Mean Temperature 43 °F 48 °F  
Max Temperature 49 °F 58 °F 84 °F (1986)
Min Temperature 37 °F 37 °F 20 °F (1964)
Degree Days  
Heating Degree Days 22 17  
Month to date heating degree days 22 17  
Since 1 July heating degree days 4494 4618  
Cooling Degree Days 0 0  
Month to date cooling degree days 0 0  
Year to date cooling degree days 0 2  
Moisture  
Dew Point 30 °F    
Average Humidity 56    
Maximum Humidity 86    
Minimum Humidity 25    
Precipitation  
Precipitation 0.00 in 0.12 in 1.16 in (2007)
Month to date precipitation 0.00 0.12  
Year to date precipitation 6.95 9.18  
Sea Level Pressure  
Sea Level Pressure 29.89 in    
Wind  
Wind Speed 7 mph (West)    
Max Wind Speed 14 mph    
Max Gust Speed 22 mph    
Visibility 10 miles    
Events      
T = Trace of Precipitation, MM = Missing Value Source: NWS Daily Summary

Daily Weather History Graph

Daily Weather History Graph

Search for Another Location

Airport or City:

Trip Planner

Search our weather history database for the weather conditions in past years. The results will help you decide how hot, cold, wet, or windy it might be!

Date:

Astronomy

Apr. 01, 2013 Rise Set
Actual Time 7:03 AM EDT 7:43 PM EDT
Civil Twilight 6:36 AM EDT 8:11 PM EDT
Nautical Twilight 6:04 AM EDT 8:43 PM EDT
Astronomical Twilight 5:31 AM EDT 9:16 PM EDT
Moon 12:49 AM EDT (4/1) 10:49 AM EDT (4/1)
Length of Visible Light 13h 34m
Length of Day
12h 40m
Waning Gibbous, 67% of the Moon is Illuminated
Apr 1
Waning Gibbous
Apr 3
Last Quarter
Apr 10
New
Apr 18
First Quarter
Apr 25
Full

Hourly Weather History & Observations

Time (EDT) Temp. Windchill Dew Point Humidity Pressure Visibility Wind Dir Wind Speed Gust Speed Precip Events Conditions
12:53 AM 46.9 °F - 43.0 °F 86% 29.79 in 10.0 mi SSW 4.6 mph - N/A   Clear
1:53 AM 46.0 °F 43.9 °F 42.1 °F 86% 29.79 in 9.0 mi South 4.6 mph - N/A   Clear
2:53 AM 46.9 °F - 43.0 °F 86% 29.77 in 10.0 mi SSW 4.6 mph - N/A   Overcast
3:53 AM 48.0 °F - 43.0 °F 83% 29.76 in 10.0 mi SSW 6.9 mph - N/A   Overcast
4:53 AM 48.0 °F - 43.0 °F 83% 29.76 in 10.0 mi SSW 5.8 mph - N/A   Clear
5:53 AM 48.0 °F - 43.0 °F 83% 29.77 in 10.0 mi SW 3.5 mph - N/A   Overcast
6:34 AM 48.2 °F - 42.8 °F 82% 29.78 in 10.0 mi SW 5.8 mph - N/A   Overcast
6:53 AM 48.0 °F - 42.1 °F 80% 29.79 in 10.0 mi SW 5.8 mph - N/A   Overcast
7:18 AM 48.2 °F - 42.8 °F 82% 29.79 in 10.0 mi SW 3.5 mph - N/A   Overcast
7:53 AM 48.0 °F - 37.9 °F 68% 29.82 in 10.0 mi West 8.1 mph - N/A   Partly Cloudy
8:53 AM 48.0 °F - 37.0 °F 66% 29.83 in 10.0 mi NW 6.9 mph - N/A   Mostly Cloudy
9:53 AM 46.0 °F 42.5 °F 34.0 °F 63% 29.85 in 10.0 mi WNW 6.9 mph - N/A   Overcast
10:53 AM 42.1 °F 37.1 °F 32.0 °F 67% 29.88 in 8.0 mi WNW 8.1 mph 18.4 mph N/A   Overcast
11:53 AM 41.0 °F 34.3 °F 30.0 °F 65% 29.91 in 9.0 mi NW 11.5 mph 20.7 mph N/A   Overcast
12:53 PM 42.1 °F 37.1 °F 28.9 °F 60% 29.92 in 10.0 mi West 8.1 mph - N/A   Overcast
1:33 PM 41.0 °F 35.8 °F 30.2 °F 65% 29.92 in 10.0 mi West 8.1 mph - N/A   Overcast
1:53 PM 41.0 °F 35.8 °F 30.9 °F 67% 29.94 in 10.0 mi WNW 8.1 mph 16.1 mph N/A   Overcast
2:04 PM 39.2 °F 33.6 °F 28.4 °F 65% 29.93 in 10.0 mi WNW 8.1 mph 18.4 mph N/A   Overcast
2:53 PM 42.1 °F 38.4 °F 28.0 °F 58% 29.93 in 10.0 mi West 5.8 mph - N/A   Overcast
3:53 PM 43.0 °F 37.7 °F 25.0 °F 49% 29.93 in 10.0 mi West 9.2 mph - N/A   Overcast
4:53 PM 45.0 °F 38.9 °F 18.0 °F 34% 29.92 in 10.0 mi WNW 12.7 mph 19.6 mph N/A   Overcast
5:53 PM 46.0 °F 40.6 °F 15.1 °F 29% 29.94 in 10.0 mi WNW 11.5 mph 17.3 mph N/A   Mostly Cloudy
6:53 PM 45.0 °F 38.5 °F 10.0 °F 24% 29.95 in 10.0 mi West 13.8 mph 18.4 mph N/A   Scattered Clouds
7:53 PM 41.0 °F 36.4 °F 10.9 °F 29% 29.98 in 10.0 mi WNW 6.9 mph - N/A   Partly Cloudy
8:53 PM 39.0 °F 34.8 °F 12.0 °F 33% 30.01 in 10.0 mi NW 5.8 mph - N/A   Clear
9:53 PM 37.9 °F 35.5 °F 12.9 °F 36% 30.04 in 10.0 mi Variable 3.5 mph - N/A   Scattered Clouds
10:53 PM 37.9 °F - 14.0 °F 38% 30.05 in 10.0 mi Calm Calm - N/A   Overcast
11:53 PM 37.0 °F - 14.0 °F 39% 30.05 in 10.0 mi Calm Calm - N/A   Overcast